Change the Weather History Date:

Monday, April 1, 2013

  Actual Average Record
Temperature  
Mean Temperature 37 °F 45 °F  
Max Temperature 46 °F 59 °F 89 °F (2012)
Min Temperature 27 °F 30 °F 10 °F (1949)
Degree Days  
Heating Degree Days 28 20  
Month to date heating degree days 20  
Since 1 July heating degree days 5195  
Cooling Degree Days 0 0  
Month to date cooling degree days 0  
Year to date cooling degree days 0  
Growing Degree Days 0 (Base 50)    
Moisture  
Dew Point 26 °F    
Average Humidity 72    
Maximum Humidity 93    
Minimum Humidity 33    
Precipitation  
Precipitation 0.00 in 0.04 in 0.61 in (1988)
Month to date precipitation 0.00 0.04  
Year to date precipitation 1.29 1.98  
Snow  
Snow 0.00 in 0.20 in - ()
Month to date snowfall 0.2  
Since 1 July snowfall 31.0  
Snow Depth -    
Sea Level Pressure  
Sea Level Pressure 30.21 in    
Wind  
Wind Speed 12 mph (East)    
Max Wind Speed 21 mph    
Max Gust Speed 26 mph    
Visibility 10 miles    
Events      
T = Trace of Precipitation, MM = Missing Value Source: NWS Daily Summary

Daily Weather History Graph

Daily Weather History Graph

Search for Another Location

Airport or City:

Trip Planner

Search our weather history database for the weather conditions in past years. The results will help you decide how hot, cold, wet, or windy it might be!

Date:

Astronomy

Apr. 01, 2013 Rise Set
Actual Time 6:30 AM MDT 7:10 PM MDT
Civil Twilight 6:03 AM MDT 7:38 PM MDT
Nautical Twilight 5:31 AM MDT 8:10 PM MDT
Astronomical Twilight 4:58 AM MDT 8:43 PM MDT
Moon 12:19 AM MDT (4/1) 10:20 AM MDT (4/1)
Length of Visible Light 13h 34m
Length of Day
12h 40m
Waning Gibbous, 66% of the Moon is Illuminated
Apr 1
Waning Gibbous
Apr 2
Last Quarter
Apr 10
New
Apr 18
First Quarter
Apr 25
Full

Hourly Weather History & Observations

Time (MDT) Temp. Windchill Dew Point Humidity Pressure Visibility Wind Dir Wind Speed Gust Speed Precip Events Conditions
12:53 AM 36.0 °F 25.0 °F 27.0 °F 70% 30.09 in 10.0 mi NE 20.7 mph 26.5 mph N/A   Clear
1:53 AM 33.1 °F 23.4 °F 26.1 °F 75% 30.10 in 10.0 mi NNE 13.8 mph - N/A   Clear
2:53 AM 30.2 °F 19.3 °F 24.8 °F 80% 30.14 in 10.0 mi NNE 15.0 mph - N/A   Clear
3:53 AM 28.9 °F 19.2 °F 24.1 °F 82% 30.13 in 10.0 mi NNE 11.5 mph - N/A   Clear
4:53 AM 28.0 °F 18.6 °F 24.1 °F 85% 30.14 in 10.0 mi NNE 10.4 mph - N/A   Clear
5:53 AM 27.0 °F 17.3 °F 24.1 °F 89% 30.17 in 10.0 mi NNE 10.4 mph - N/A   Scattered Clouds
6:03 AM 28.4 °F 18.5 °F 24.8 °F 86% 30.18 in 10.0 mi NNE 11.5 mph - N/A   Mostly Cloudy
6:53 AM 28.9 °F 16.9 °F 26.1 °F 89% 30.19 in 10.0 mi NE 17.3 mph - N/A   Overcast
7:43 AM 28.4 °F 18.0 °F 26.6 °F 93% 30.22 in 10.0 mi ENE 12.7 mph - N/A   Overcast
7:53 AM 28.0 °F 16.5 °F 26.1 °F 92% 30.24 in 10.0 mi NE 15.0 mph - N/A   Overcast
8:53 AM 28.9 °F 19.8 °F 27.0 °F 92% 30.26 in 10.0 mi NE 10.4 mph - N/A   Overcast
9:44 AM 28.4 °F 19.1 °F 26.6 °F 93% 30.25 in 10.0 mi ENE 10.4 mph - N/A   Overcast
9:53 AM 28.9 °F 21.1 °F 26.1 °F 89% 30.28 in 10.0 mi ENE 8.1 mph - N/A   Overcast
10:44 AM 28.4 °F 24.6 °F 26.6 °F 93% 30.26 in 8.0 mi NE 3.5 mph - N/A   Overcast
10:53 AM 30.0 °F 26.5 °F 27.0 °F 88% 30.29 in 10.0 mi East 3.5 mph - N/A   Overcast
11:17 AM 30.2 °F 24.3 °F 26.6 °F 86% 30.26 in 10.0 mi ESE 5.8 mph - N/A   Overcast
11:53 AM 30.9 °F 24.3 °F 27.0 °F 85% 30.31 in 10.0 mi ESE 6.9 mph - N/A   Overcast
12:26 PM 33.8 °F 29.6 °F 26.6 °F 75% 30.24 in 10.0 mi SSE 4.6 mph - N/A   Overcast
12:53 PM 36.0 °F 30.3 °F 27.0 °F 70% 30.25 in 10.0 mi SE 6.9 mph - N/A   Mostly Cloudy
1:07 PM 37.4 °F 32.8 °F 26.6 °F 65% 30.21 in 10.0 mi ESE 5.8 mph - N/A   Mostly Cloudy
1:18 PM 37.4 °F 31.4 °F 26.6 °F 65% 30.20 in 10.0 mi SE 8.1 mph - N/A   Partly Cloudy
1:53 PM 39.9 °F 35.8 °F 27.0 °F 60% 30.23 in 10.0 mi East 5.8 mph 16.1 mph N/A   Clear
2:53 PM 43.0 °F 38.2 °F 26.1 °F 51% 30.19 in 10.0 mi ESE 8.1 mph 18.4 mph N/A   Clear
3:53 PM 48.0 °F - 27.0 °F 44% 30.16 in 10.0 mi ESE 11.5 mph - N/A   Clear
4:53 PM 46.9 °F - 25.0 °F 42% 30.15 in 10.0 mi East 10.4 mph 18.4 mph N/A   Clear
5:53 PM 46.0 °F 40.2 °F 26.1 °F 46% 30.17 in 10.0 mi East 12.7 mph - N/A   Clear
6:53 PM 42.1 °F 36.1 °F 25.0 °F 51% 30.18 in 10.0 mi East 10.4 mph - N/A   Clear
7:53 PM 37.0 °F 30.4 °F 26.1 °F 65% 30.20 in 10.0 mi ESE 9.2 mph - N/A   Clear
8:53 PM 34.0 °F 28.0 °F 26.1 °F 73% 30.23 in 10.0 mi SSE 6.9 mph - N/A   Clear
9:53 PM 36.0 °F 29.6 °F 26.1 °F 67% 30.25 in 10.0 mi SSE 8.1 mph - N/A   Overcast
10:53 PM 37.0 °F 30.4 °F 24.1 °F 59% 30.23 in 10.0 mi SSE 9.2 mph - N/A   Overcast
11:53 PM 36.0 °F 28.5 °F 23.0 °F 59% 30.24 in 10.0 mi South 10.4 mph - N/A   Overcast